Weather History for Ponca City, OK

Change the Weather History Date:

Monday, December 30, 2013

  Actual Average Record
Temperature  
Mean Temperature 22 °F -  
Max Temperature 35 °F 45 °F 71 °F (1956)
Min Temperature 8 °F 25 °F 8 °F (2013)
Degree Days  
Heating Degree Days 44    
Moisture  
Dew Point 8 °F    
Average Humidity 57    
Maximum Humidity 80    
Minimum Humidity 37    
Precipitation  
Precipitation 0.00 in - - ()
Sea Level Pressure  
Sea Level Pressure 30.33 in    
Wind  
Wind Speed 2 mph (SSW)    
Max Wind Speed 8 mph    
Max Gust Speed -    
Visibility 10 miles    
Events      
Averages and records for this station are not official NWS values.
T = Trace of Precipitation, MM = Missing Value Source: NWS Daily Summary

Daily Weather History Graph

Daily Weather History Graph

Search for Another Location

Airport:

Trip Planner

Search our weather history database for the weather conditions in past years. The results will help you decide how hot, cold, wet, or windy it might be!

Date:

Astronomy

Dec. 30, 2013 Rise Set
Actual Time 7:40 AM CST 5:21 PM CST
Civil Twilight 7:11 AM CST 5:50 PM CST
Nautical Twilight 6:39 AM CST 6:22 PM CST
Astronomical Twilight 6:07 AM CST 6:54 PM CST
Moon 5:33 AM CST (12/30) 3:55 PM CST (12/30)
Length of Visible Light 10h 38m
Length of Day
9h 41m
Waning Crescent, 4% of the Moon is Illuminated
Dec 30
Waning Crescent
Jan 1
New
Jan 7
First Quarter
Jan 15
Full
Jan 23
Last Quarter

Hourly Weather History & Observations

Time (CST) Temp. Windchill Dew Point Humidity Pressure Visibility Wind Dir Wind Speed Gust Speed Precip Events Conditions
12:53 AM 12.9 °F - 5.0 °F 71% 30.34 in 10.0 mi Calm Calm - N/A   Clear
1:53 AM 10.9 °F - 5.0 °F 77% 30.35 in 10.0 mi Calm Calm - N/A   Clear
2:53 AM 10.0 °F 3.6 °F 3.9 °F 76% 30.34 in 10.0 mi NE 3.5 mph - N/A   Clear
3:53 AM 8.1 °F - 3.0 °F 80% 30.34 in 10.0 mi Calm Calm - N/A   Clear
4:53 AM 10.0 °F - 3.9 °F 76% 30.34 in 10.0 mi Calm Calm - N/A   Clear
5:53 AM 9.0 °F - 1.9 °F 73% 30.32 in 10.0 mi Calm Calm - N/A   Clear
6:53 AM 10.9 °F - 3.0 °F 70% 30.31 in 10.0 mi Calm Calm - N/A   Clear
7:53 AM 15.1 °F 9.4 °F 5.0 °F 64% 30.32 in 10.0 mi ESE 3.5 mph - N/A   Clear
8:53 AM 16.0 °F 5.3 °F 3.9 °F 59% 30.33 in 10.0 mi SSE 8.1 mph - N/A   Clear
9:53 AM 18.0 °F 12.7 °F 3.0 °F 52% 30.35 in 10.0 mi SE 3.5 mph - N/A   Clear
10:53 AM 21.0 °F 14.6 °F 3.9 °F 48% 30.37 in 10.0 mi Variable 4.6 mph - N/A   Clear
11:53 AM 26.1 °F 17.6 °F 3.9 °F 39% 30.33 in 10.0 mi SSW 8.1 mph - N/A   Clear
12:53 PM 28.9 °F 22.8 °F 7.0 °F 40% 30.30 in 10.0 mi SSW 5.8 mph - N/A   Clear
1:53 PM 32.0 °F 25.6 °F 9.0 °F 38% 30.28 in 10.0 mi West 6.9 mph - N/A   Clear
2:53 PM 34.0 °F 31.0 °F 10.9 °F 38% 30.27 in 10.0 mi SW 3.5 mph - N/A   Clear
3:53 PM 35.1 °F 30.1 °F 10.9 °F 37% 30.29 in 10.0 mi WSW 5.8 mph - N/A   Clear
4:53 PM 34.0 °F 31.0 °F 12.0 °F 40% 30.30 in 10.0 mi WSW 3.5 mph - N/A   Clear
5:53 PM 33.1 °F 28.7 °F 12.9 °F 43% 30.32 in 10.0 mi SW 4.6 mph - N/A   Clear
6:53 PM 30.0 °F 26.5 °F 14.0 °F 51% 30.34 in 10.0 mi South 3.5 mph - N/A   Clear
7:53 PM 30.0 °F 26.5 °F 15.1 °F 54% 30.34 in 10.0 mi South 3.5 mph - N/A   Clear
8:53 PM 28.9 °F 23.9 °F 15.1 °F 56% 30.35 in 10.0 mi South 4.6 mph - N/A   Clear
9:53 PM 28.0 °F 22.8 °F 15.1 °F 58% 30.37 in 10.0 mi South 4.6 mph - N/A   Clear
10:53 PM 27.0 °F - 15.1 °F 61% 30.39 in 10.0 mi Calm Calm - N/A   Clear
11:53 PM 27.0 °F - 17.1 °F 66% 30.38 in 10.0 mi Calm Calm - N/A   Clear